Regional Weather Roundup
Issued by NWS Grand Forks, ND

Home | Current Version | Previous Version | Text Only | Print | Product List | Glossary Off
Versions: 1 2 3 4 5 6 7 8 9 10 11 12 13 14 15 16 17 18 19 20 21 22 23 24 25 26 27 28 29 30 31 32 33 34 35 36 37 38 39 40 41 42 43 44 45 46 47 48 49 50

664
ASUS43 KFGF 211410
RWRFGF
PRAIRIE TO PINES  WEATHER ROUNDUP
NATIONAL WEATHER SERVICE EASTERN NORTH DAKOTA/GRAND FORKS ND
900 AM CDT THU MAY 21 2015

 **SATELLITE DATA USED TO AUGMENT SKY COVER AT AUTOMATED STATIONS**
 *****  WEATHER ACROSS EASTERN NORTH DAKOTA  *****

CITY           SKY/WX    TMP DP  RH WIND       PRES   REMARKS
GRAND FORKS    SUNNY     52  39  61 N10       30.15R
GRAND FRKS AFB SUNNY     52  37  56 N9        30.15S
GRAND FRKS NWS   N/A     50 N/A N/A N13         N/A
DEVILS LAKE    MOSUNNY   52  37  58 NE5       30.16S
FARGO          SUNNY     53  40  61 N12       30.13R
WAHPETON ARPT  SUNNY     54  37  54 NW10      30.13S
$$

 ***** WEATHER ACROSS CENTRAL AND WESTERN NORTH DAKOTA  *****

CITY           SKY/WX    TMP DP  RH WIND       PRES   REMARKS
BISMARCK       SUNNY     56  35  45 W8        30.20S
MINOT          SUNNY     56  35  45 NW10      30.17S
JAMESTOWN      SUNNY     54  42  64 NW6       30.16R
MINOT AFB      SUNNY     57  36  45 NW6       30.16S
GARRISON         N/A     58  35  42 NW12      30.18S
WILLISTON      SUNNY     52  37  56 SW3       30.22F
DICKINSON      SUNNY     53  34  48 W12       30.22S
HETTINGER      SUNNY     52  36  54 NW13      30.26S
$$

 *****  OTHER AIRPORT OBSERVATIONS IN OUR AREA  *****

CITY           SKY/WX    TMP DP  RH WIND       PRES   REMARKS
WALHALLA       FAIR      52  36  54 N5        30.18R
GRAFTON AIRPOR FAIR      52  39  62 N8G14     30.16S
VALLEY CITY AR FAIR      54  39  58 N7        30.16R
CANDO          FAIR      54  32  43 NE5       30.18S
CAVALIER APRT  FAIR      50  37  62 NW9       30.16S
GWINNER        NOT AVBL
SHEYENNE NWR     N/A     57  38  49 N7        29.95S
ROLLA          FAIR      54  30  40 NE7       30.18S
 ***** THE ABOVE OBSERVATIONS ARE NON NWS ARE NOT QUALITY
       CONTROLLED AND MAY MIS-REPORT RAIN FOR SNOW...
$$

  *****  WEATHER ACROSS NORTHERN MINNESOTA  *****

CITY           SKY/WX    TMP DP  RH WIND       PRES   REMARKS
FLAG ISLAND    SUNNY     48  34  57 N7        30.11S
WARROAD        SUNNY     52  37  58 N3        30.13S
ROSEAU         SUNNY     54  37  54 NE6       30.13S
HALLOCK        SUNNY     50  41  71 N5        30.15S
THF RVR FALLS  SUNNY     54  36  50 N6        30.13S
BAUDETTE       SUNNY     54  35  48 N8        30.11R
WASKISH        SUNNY     54  36  50 N6        30.10R
CROOKSTON      SUNNY     52  39  62 N7        30.14S
STEPHEN NDAWN    N/A     48  43  81 N8          N/A
GREENBUSH NDAW   N/A     52  39  62 N5          N/A
$$
  *****  WEATHER ACROSS CENTRAL AND WEST MINNESOTA  *****

CITY           SKY/WX    TMP DP  RH WIND       PRES   REMARKS
FOSSTON        SUNNY     52  36  54 N5        30.12R
BEMIDJI        SUNNY     54  35  48 N5        30.09R
PARK RAPIDS    SUNNY     55  35  47 NW10      30.07R
ELBOW LAKE     FAIR      53  40  62 NW13      30.11S
WADENA         SUNNY     52  39  62 NW12G17   30.07S
DETROIT LAKES  SUNNY     50  41  71 NW9       30.12R
MOORHEAD       SUNNY     52  39  62 N15       30.14S
FERGUS FALLS   SUNNY     54  39  58 N12       30.12S
MORRIS MN      SUNNY     57  39  51 NW15      30.10S
STAPLES        SUNNY     54  36  50 N8        30.06R
$$
  *****  WEATHER ELSEWHERE ACROSS MINNESOTA  *****

CITY           SKY/WX    TMP DP  RH WIND       PRES   REMARKS
DULUTH         SUNNY     57  37  47 NE9       29.99R
INTRNTL FALLS  SUNNY     54  32  43 NW8       30.07S
ELY            SUNNY     52  28  40 NE8       30.02S
CLOQUET        SUNNY     57  36  44 N8        29.99R
WHEATON        SUNNY     55  37  50 NW13      30.15S
BRAINERD       SUNNY     55  38  52 N12       30.04R
HIBBING        SUNNY     56  30  37 N13       30.02R
ALEXANDRIA     SUNNY     57  34  41 NW15G22   30.09S
SAINT CLOUD    SUNNY     57  41  55 NW10      30.03S
MINNEAPOLIS    MOSUNNY   54  38  54 W10       30.04S
$$

  *****  WEATHER ACROSS SOUTH DAKOTA  *****

CITY           SKY/WX    TMP DP  RH WIND       PRES   REMARKS
SIOUX FALLS    MOSUNNY   56  37  49 NW15G23   30.19F
BROOKINGS      SUNNY     57  34  41 NW20      30.17F
WATERTOWN      SUNNY     56  36  47 NW15      30.16R
HURON          SUNNY     58  37  45 W15       30.21S
SISSETON         N/A     58  39  49 N15       30.13R
ABERDEEN       MOSUNNY   59  38  45 NW13      30.18R
MITCHELL       SUNNY     55  41  59 W14       30.23S
PIERRE         SUNNY     50  39  66 W9        30.25R
MOBRIDGE       SUNNY     53  36  52 NW5       30.21S
RAPID CITY     SUNNY     46  36  68 CALM      30.26F
$$

  *****  SOME WEATHER IN NEARBY STATES *****

CITY           SKY/WX    TMP DP  RH WIND       PRES   REMARKS
GLASGOW MT     SUNNY     51  33  50 SE10      30.20S
GREAT FALLS MT SUNNY     48  34  58 S3        30.06S
CHEYENNE WY    FOG       37  36  96 S13       30.22S VSB 1/4
SCOTTSBLUFF NE CLOUDY    43  38  82 E8        30.26F
OMAHA NE       SUNNY     52  41  66 NW7       30.26F
DES MOINES IA  SUNNY     53  42  66 W10       30.20F
DAVENPORT IA   SUNNY     52  42  69 W14       30.17F
CHICAGO IL     CLOUDY    48  40  73 W10       30.11S
EAU CLAIRE WI  SUNNY     53  39  59 W7        30.02F
LA CROSSE WI   SUNNY     54  42  64 S8        30.06F
$$

  *****  SOME NATIONAL WEATHER *****

CITY           SKY/WX    TMP DP  RH WIND       PRES   REMARKS
LA GUARDIA NY  CLOUDY    59  36  42 N5        29.99F
RALEIGH NC     CLOUDY    65  60  84 CALM      29.88F
ATLANTA GA     MOSUNNY   72  59  63 NW15      30.00R
NEW ORLEANS LA PTSUNNY   82  71  69 W3        30.04R
OKLAHOMA CITY  PTSUNNY   53  43  68 NE18      30.28R
ALBUQUERQUE NM PTSUNNY   55  43  63 E24G30    30.17S
SALT LAKE CITY MOSUNNY   53  44  71 S6        29.99S
LOS ANGELES CA PTSUNNY   58  54  86 CALM      29.96R
BOISE ID       PTSUNNY   57  48  72 E3        29.93S
SEATTLE WA     MOSUNNY   55  52  89 CALM      29.89R
$$

*** WEATHER ACROSS MANITOBA...SASKATCHEWAN AND ONTARIO ***
                ***ONTARIO***

CITY           SKY/WX    TMP DP  RH WIND       PRES   REMARKS
GERALDTON      MOSUNNY   43  25  49 N12       29.94S
THUNDER BAY    MOSUNNY   55  27  33 N10       29.98S
SIOUX LOOKOUT  MOSUNNY   46  28  49 N8        30.08S
TORONTO        MOSUNNY   57  32  38 SW7       29.95F
BIG TROUT LK   CLOUDY    28  19  69 N8        30.12R WCI  20
PICKLE LAKE    MOSUNNY   39  18  41 VRB7      30.04F
DRYDEN         SUNNY     48  28  46 N12G17    30.08S
KENORA         MOSUNNY   48  30  49 NE7       30.12R
$$
                *** MANITOBA***

CITY           SKY/WX    TMP DP  RH WIND       PRES   REMARKS
BRANDON        MOSUNNY   54  32  43 SE6       30.19S
DAUPHIN        SUNNY     57  39  51 W6        30.18R
ISLAND LAKE    SUNNY     41  21  45 N7        30.21S
PILOT MOUND      N/A     54  34  47 N6          N/A
THE PAS        MOSUNNY   57  45  62 SE8       30.13F
THOMPSON       MOSUNNY   45  25  45 E2        30.23S
WINNIPEG       NOT AVBL
LYNN LAKE      MOSUNNY   48  27  43 SE8       30.17S
CHURCHILL      MOSUNNY   30  23  74 NE6       30.27F WCI  24
GILLAM         MOSUNNY   32  23  69 N3        30.25S
$$
                ***SASKATCHEWAN***

CITY           SKY/WX    TMP DP  RH WIND       PRES   REMARKS
ESTEVAN        MOSUNNY   55  37  50 NW9       30.19S
KINDERSLEY     MOSUNNY   57  28  33 S10       30.16S
LLOYDMINSTER   MOSUNNY   59  30  33 SW8       30.13S
PRINCE ALBERT  MOSUNNY   59  36  41 W6        30.14S
REGINA         SUNNY     55  36  47 NW5       30.20F
YORKTON        SUNNY     57  39  51 NW5       30.16S
N. BATTLEFORD  SUNNY     59  30  33 CALM      30.18S
LA RONGE       MOSUNNY   63  34  34 W6        30.09S
SASKATOON      SUNNY     55  32  41 SW5       30.19S
SWIFT CURRENT  SUNNY     57  28  33 S13       30.18S
$$
NOTE: THESE ARE AUTOMATED STATIONS WITH LIMITED QUALITY CONTROL
      "FAIR" INDICATES FEW OR NO CLOUDS BELOW 12,000 FEET WITH NO
      SIGNIFICANT WEATHER AND/OR OBSTRUCTIONS TO VISIBILITY.
      SKY/WX - SKY CONDITION AND SIGNIFICANT WEATHER.
      TMP - AIR TEMPERATURE.    DP   - DEWPOINT TEMPERATURE.
      RH  - RELATIVE HUMIDITY.  PRES - PRESSURE.
      HX  - HEAT INDEX.         WCI  - WIND CHILL INDEX.
$



USA.gov is the U.S. government's official web portal to all federal, state and local government web resources and services.